Regional Weather Roundup
Issued by NWS

Home | Current Version | Previous Version | Text Only | Print | Product List | Glossary Off
Versions: 1 2 3 4 5 6 7 8 9 10 11 12 13 14 15 16 17 18 19 20 21 22 23 24 25 26 27 28 29 30 31 32 33 34 35 36 37 38 39 40 41 42 43 44 45 46 47 48 49 50

000
ASUS43 KTOP 242059
RWRKS

WEATHER ROUNDUP FOR KANSAS
NATIONAL WEATHER SERVICE GOODLAND KS
300 PM CST SAT FEB 24 2018

NOTE:  "FAIR" INDICATES FEW OR NO CLOUDS BELOW 12,000 FEET WITH NO
SIGNIFICANT WEATHER AND/OR OBSTRUCTIONS TO VISIBILITY.

KSZ001>006-013>018-027>032-041>047-242200-
NORTHWEST KANSAS

CITY           SKY/WX    TMP DP  RH WIND       PRES   REMARKS
GOODLAND       MOSUNNY   42  10  27 NW29G37   29.74F
HAYS           PTSUNNY   40  31  70 W9        29.77F
HILL CITY      SUNNY     45  23  42 NW23G33   29.75F
RUSSELL        CLOUDY    39  34  82 W15       29.77F WCI  31
$$

KSZ061>065-074>080-084>089-242200-
SOUTHWEST KANSAS

CITY           SKY/WX    TMP DP  RH WIND       PRES   REMARKS
DODGE CITY     MOSUNNY   46  29  51 NW18G28   29.79F
GARDEN CITY    MOSUNNY   48  16  27 NW16G29   29.78S
GREAT BEND     CLOUDY    39  32  76 W14       29.79F WCI  31
LIBERAL        MOSUNNY   46  26  45 NW17G26   29.83S
$$

KSZ066>073-081>083-090>101-242200-
SOUTHEAST KANSAS

CITY           SKY/WX    TMP DP  RH WIND       PRES   REMARKS
CHANUTE        CLOUDY    42  40  92 W16       29.74S
COFFEYVILLE    CLOUDY    46  43  89 W15       29.75R
HUTCHINSON     CLOUDY    37  33  85 W16       29.79S WCI  28
MEDICINE LODGE   N/A     40  33  76 W14       29.83S WCI  32
NEWTON         CLOUDY    35  34  96 W15       29.79S WCI  25
PARSONS        CLOUDY    44  42  93 W14       29.76R
WICHITA INTL   CLOUDY    40  35  83 NW15      29.80S WCI  32
WICHITA JABRA  CLOUDY    38  35  89 W17G24    29.79S WCI  28
WICHITA MCCONL CLOUDY    39  34  80 NW15      29.79R WCI  31
WINFIELD       CLOUDY    40  37  89 NW14      29.82R WCI  32
$$

KSZ007>012-019>026-033>040-048>060-102>105-242200-
NORTHEAST KANSAS

CITY           SKY/WX    TMP DP  RH WIND       PRES   REMARKS
CONCORDIA      CLOUDY    31  29  92 W16       29.76S WCI  20
EMPORIA        CLOUDY    36  33  89 W17       29.75R WCI  26
LAWRENCE       CLOUDY    39  38  96 W15       29.71F WCI  31
MANHATTAN      CLOUDY    35  32  88 W9        29.76S
OLATHE IND     CLOUDY    40  38  93 W12       29.70R WCI  33
OLATHE EXE     CLOUDY    40  39  97 W9        29.68S
SALINA         CLOUDY    35  31  85 W16       29.80S WCI  25
TOPEKA BILLARD LGT RAIN  37  37 100 W10       29.73S FOG     WCI  30
TOPEKA FORBES  LGT RAIN  38  37  97 W12       29.72S FOG     WCI  30
$$




USA.gov is the U.S. government's official web portal to all federal, state and local government web resources and services.